Weather History for New Iberia, LA

Change the Weather History Date:

Tuesday, February 26, 2013

  Actual Average Record
Temperature  
Mean Temperature 53 °F 58 °F  
Max Temperature 62 °F 68 °F 82 °F (1948)
Min Temperature 44 °F 48 °F 27 °F (1974)
Degree Days  
Heating Degree Days 12 8  
Month to date heating degree days 148 264  
Since 1 July heating degree days 864 1201  
Cooling Degree Days 0 1  
Month to date cooling degree days 10 22  
Year to date cooling degree days 48 34  
Growing Degree Days 2 (Base 50)    
Moisture  
Dew Point 39 °F    
Average Humidity 62    
Maximum Humidity 77    
Minimum Humidity 46    
Precipitation  
Precipitation 0.00 in 0.14 in 1.08 in (2014)
Month to date precipitation 3.95 3.89  
Year to date precipitation 16.75 9.11  
Sea Level Pressure  
Sea Level Pressure 29.82 in    
Wind  
Wind Speed 11 mph (West)    
Max Wind Speed 25 mph    
Max Gust Speed 33 mph    
Visibility 10 miles    
Events      
T = Trace of Precipitation, MM = Missing Value Source: NWS Daily Summary

Daily Weather History Graph

Daily Weather History Graph

Search for Another Location

Airport:

Trip Planner

Search our weather history database for the weather conditions in past years. The results will help you decide how hot, cold, wet, or windy it might be!

Date:

Astronomy

Feb. 26, 2013 Rise Set
Actual Time 6:36 AM CST 6:04 PM CST
Civil Twilight 6:12 AM CST 6:28 PM CST
Nautical Twilight 5:44 AM CST 6:56 PM CST
Astronomical Twilight 5:16 AM CST 7:24 PM CST
Moon 7:11 PM CST (2/26) 6:46 AM CST (2/26)
Length of Visible Light 12h 16m
Length of Day
11h 28m
Full, 99% of the Moon is Illuminated
Feb 26
Full
Mar 4
Last Quarter
Mar 11
New
Mar 19
First Quarter
Mar 27
Full

Hourly Weather History & Observations

Time (CST) Temp. Windchill Dew Point Humidity Pressure Visibility Wind Dir Wind Speed Gust Speed Precip Events Conditions
12:53 AM 53.1 °F - 35.1 °F 50% 29.66 in 10.0 mi West 17.3 mph 28.8 mph N/A   Clear
1:53 AM 51.1 °F - 34.0 °F 52% 29.68 in 10.0 mi West 17.3 mph 32.2 mph N/A   Clear
2:53 AM 48.9 °F - 35.1 °F 59% 29.70 in 10.0 mi West 23.0 mph 29.9 mph N/A   Clear
3:53 AM 48.0 °F - 34.0 °F 58% 29.71 in 10.0 mi West 13.8 mph - N/A   Clear
4:53 AM 48.0 °F - 35.1 °F 61% 29.72 in 10.0 mi West 13.8 mph - N/A   Clear
5:53 AM 46.9 °F - 34.0 °F 61% 29.75 in 10.0 mi West 10.4 mph - N/A   Clear
6:53 AM 44.1 °F 40.8 °F 35.1 °F 71% 29.76 in 10.0 mi WSW 5.8 mph - N/A   Clear
7:53 AM 48.0 °F - 36.0 °F 63% 29.79 in 10.0 mi West 13.8 mph - N/A   Clear
8:53 AM 50.0 °F - 35.1 °F 57% 29.83 in 10.0 mi WNW 19.6 mph 32.2 mph N/A   Partly Cloudy
9:53 AM 52.0 °F - 36.0 °F 54% 29.84 in 10.0 mi West 16.1 mph 24.2 mph N/A   Scattered Clouds
10:53 AM 54.0 °F - 37.9 °F 55% 29.86 in 10.0 mi West 16.1 mph 26.5 mph N/A   Partly Cloudy
11:53 AM 55.0 °F - 37.9 °F 53% 29.85 in 10.0 mi West 19.6 mph 25.3 mph N/A   Partly Cloudy
12:53 PM 57.9 °F - 39.9 °F 51% 29.83 in 10.0 mi WNW 16.1 mph 19.6 mph N/A   Clear
1:53 PM 59.0 °F - 39.9 °F 49% 29.81 in 10.0 mi WNW 12.7 mph 19.6 mph N/A   Clear
2:53 PM 60.1 °F - 39.9 °F 47% 29.82 in 10.0 mi West 15.0 mph - N/A   Clear
3:53 PM 60.1 °F - 39.0 °F 46% 29.83 in 10.0 mi West 11.5 mph - N/A   Clear
4:53 PM 61.0 °F - 39.9 °F 46% 29.85 in 10.0 mi West 9.2 mph - N/A   Clear
5:53 PM 57.9 °F - 41.0 °F 53% 29.85 in 10.0 mi WSW 3.5 mph - N/A   Clear
6:53 PM 55.0 °F - 42.1 °F 62% 29.88 in 10.0 mi SW 4.6 mph - N/A   Clear
7:53 PM 53.1 °F - 44.1 °F 71% 29.91 in 10.0 mi SW 4.6 mph - N/A   Clear
8:53 PM 53.1 °F - 45.0 °F 74% 29.91 in 10.0 mi SW 4.6 mph - N/A   Clear
9:53 PM 53.1 °F - 46.0 °F 77% 29.94 in 10.0 mi WSW 4.6 mph - N/A   Clear
10:53 PM 53.1 °F - 46.9 °F 80% 29.95 in 10.0 mi Calm Calm - N/A   Clear
11:53 PM 52.0 °F - 46.9 °F 83% 29.94 in 10.0 mi Calm Calm - N/A   Clear